,,,PA_Meas_PMT16A,,PR_Meas_QMR101_102,,RH_Meas_QMH101,,SR_Meas_QMS101,,TA_Meas_QMH101,,GenWind,,GenWind,
date,time,status,PA,status,PR,status,RH,status,SR,status,TA,status,DirAvg,status,SpdAvg,
2013-02-27, 00:00:04,VALID,1009.27,VALID,0,VALID,104,VALID,0,VALID,24.5905,VALID,315,VALID,0,
2013-02-27, 00:01:04,VALID,1009.26,VALID,0,VALID,104,VALID,0,VALID,24.5496,VALID,315,VALID,0,
2013-02-27, 00:02:04,VALID,1009.26,VALID,0,VALID,104,VALID,0,VALID,24.571,VALID,314,VALID,0.176953,
2013-02-27, 00:03:04,VALID,1009.24,VALID,0,VALID,104,VALID,0,VALID,24.5496,VALID,315,VALID,0.296094,
2013-02-27, 00:04:04,VALID,1009.23,VALID,0,VALID,104,VALID,0,VALID,24.5106,VALID,315,VALID,0.24375,
2013-02-27, 00:05:04,VALID,1009.19,VALID,0,VALID,104,VALID,0,VALID,24.532,VALID,316,VALID,0.0539063,
2013-02-27, 00:06:04,VALID,1009.2,VALID,0,VALID,104,VALID,0,VALID,24.4911,VALID,315,VALID,0,
2013-02-27, 00:07:04,VALID,1009.18,VALID,0,VALID,104,VALID,0,VALID,24.493,VALID,316,VALID,0.0257812,
2013-02-27, 00:08:04,VALID,1009.13,VALID,0,VALID,104,VALID,0,VALID,24.454,VALID,315,VALID,0,
2013-02-27, 00:09:04,VALID,1009.16,VALID,0,VALID,104,VALID,0,VALID,24.4132,VALID,315,VALID,0,
2013-02-27, 00:10:04,VALID,1009.12,VALID,0,VALID,104,VALID,0.112112,VALID,24.4327,VALID,315,VALID,0,
2013-02-27, 00:11:04,VALID,1009.12,VALID,0,VALID,104,VALID,0,VALID,24.4345,VALID,315,VALID,0,
2013-02-27, 00:12:04,VALID,1009.09,VALID,0,VALID,104,VALID,0,VALID,24.4522,VALID,315,VALID,0,
2013-02-27, 00:13:04,VALID,1009.08,VALID,0,VALID,104,VALID,0.112112,VALID,24.4522,VALID,315,VALID,0,
2013-02-27, 00:14:04,VALID,1009.08,VALID,0,VALID,104,VALID,0,VALID,24.4522,VALID,315,VALID,0,
2013-02-27, 00:15:04,VALID,1009.09,VALID,0,VALID,104,VALID,0,VALID,24.4522,VALID,316,VALID,0,
2013-02-27, 00:16:04,VALID,1009.09,VALID,0,VALID,104,VALID,0,VALID,24.4522,VALID,314,VALID,0,
2013-02-27, 00:17:04,VALID,1009.05,VALID,0,VALID,104,VALID,0,VALID,24.4522,VALID,316,VALID,0,
2013-02-27, 00:18:04,VALID,1009.04,VALID,0,VALID,104,VALID,0,VALID,24.454,VALID,315,VALID,0,
2013-02-27, 00:19:04,VALID,1009.01,VALID,0,VALID,104,VALID,0,VALID,24.454,VALID,314,VALID,0.00429688,
2013-02-27, 00:20:04,VALID,1009.03,VALID,0,VALID,104,VALID,0,VALID,24.4345,VALID,315,VALID,0.310937,
2013-02-27, 00:21:04,VALID,1009.02,VALID,0,VALID,104,VALID,0.112112,VALID,24.4327,VALID,316,VALID,0.255078,
2013-02-27, 00:22:04,VALID,1008.99,VALID,0,VALID,104,VALID,0,VALID,24.3937,VALID,315,VALID,0.251172,
2013-02-27, 00:23:04,VALID,1009.01,VALID,0,VALID,104,VALID,0,VALID,24.415,VALID,315,VALID,0.230859,
2013-02-27, 00:24:04,VALID,1009,VALID,0,VALID,104,VALID,0,VALID,24.3761,VALID,315,VALID,0.123438,
2013-02-27, 00:25:04,VALID,1008.97,VALID,0,VALID,104,VALID,0.112112,VALID,24.3371,VALID,314,VALID,0,
2013-02-27, 00:26:04,VALID,1008.99,VALID,0,VALID,104,VALID,0,VALID,24.3158,VALID,316,VALID,0,
2013-02-27, 00:27:04,VALID,1008.97,VALID,0,VALID,104,VALID,0.112112,VALID,24.3158,VALID,315,VALID,0,
2013-02-27, 00:28:04,VALID,1008.97,VALID,0,VALID,104,VALID,0.112112,VALID,24.3158,VALID,315,VALID,0,
2013-02-27, 00:29:04,VALID,1008.96,VALID,0,VALID,104,VALID,0.112112,VALID,24.3158,VALID,315,VALID,0,
2013-02-27, 00:30:04,VALID,1008.93,VALID,0,VALID,104,VALID,0,VALID,24.3352,VALID,316,VALID,0,
2013-02-27, 00:31:04,VALID,1008.93,VALID,0,VALID,104,VALID,0,VALID,24.3371,VALID,314,VALID,0,
2013-02-27, 00:32:04,VALID,1008.92,VALID,0,VALID,104,VALID,0,VALID,24.3158,VALID,314,VALID,0,
2013-02-27, 00:33:04,VALID,1008.89,VALID,0,VALID,104,VALID,0,VALID,24.3761,VALID,315,VALID,0,
2013-02-27, 00:34:04,VALID,1008.89,VALID,0,VALID,104,VALID,0,VALID,24.3371,VALID,315,VALID,0,
2013-02-27, 00:35:04,VALID,1008.9,VALID,0,VALID,104,VALID,0,VALID,24.3566,VALID,315,VALID,0,
2013-02-27, 00:36:04,VALID,1008.87,VALID,0,VALID,104,VALID,0,VALID,24.2963,VALID,315,VALID,0,
2013-02-27, 00:37:04,VALID,1008.87,VALID,0,VALID,104,VALID,0,VALID,24.3176,VALID,316,VALID,0,
2013-02-27, 00:38:04,VALID,1008.88,VALID,0,VALID,104,VALID,0,VALID,24.3158,VALID,314,VALID,0,
2013-02-27, 00:39:04,VALID,1008.84,VALID,0,VALID,104,VALID,0,VALID,24.3176,VALID,316,VALID,0,
2013-02-27, 00:40:04,VALID,1008.84,VALID,0,VALID,104,VALID,0,VALID,24.2963,VALID,315,VALID,0,
2013-02-27, 00:41:04,VALID,1008.82,VALID,0,VALID,104,VALID,0,VALID,24.3371,VALID,315,VALID,0,
2013-02-27, 00:42:04,VALID,1008.8,VALID,0,VALID,104,VALID,0,VALID,24.3176,VALID,315,VALID,0,
2013-02-27, 00:43:04,VALID,1008.75,VALID,0,VALID,104,VALID,0,VALID,24.3371,VALID,315,VALID,0,
2013-02-27, 00:44:04,VALID,1008.76,VALID,0,VALID,104,VALID,0,VALID,24.3176,VALID,315,VALID,0,
2013-02-27, 00:45:04,VALID,1008.71,VALID,0,VALID,104,VALID,0,VALID,24.3371,VALID,315,VALID,0,
2013-02-27, 00:46:04,VALID,1008.73,VALID,0,VALID,104,VALID,0,VALID,24.3566,VALID,315,VALID,0,
2013-02-27, 00:47:04,VALID,1008.74,VALID,0,VALID,104,VALID,0,VALID,24.3371,VALID,315,VALID,0,
2013-02-27, 00:48:04,VALID,1008.73,VALID,0,VALID,104,VALID,0,VALID,24.3352,VALID,315,VALID,0,
2013-02-27, 00:49:04,VALID,1008.75,VALID,0,VALID,104,VALID,0,VALID,24.3371,VALID,315,VALID,0.230859,
2013-02-27, 00:50:04,VALID,1008.75,VALID,0,VALID,104,VALID,0,VALID,24.3371,VALID,315,VALID,0.270703,
2013-02-27, 00:51:04,VALID,1008.73,VALID,0,VALID,104,VALID,0,VALID,24.3371,VALID,315,VALID,0.251953,
2013-02-27, 00:52:04,VALID,1008.72,VALID,0,VALID,104,VALID,0,VALID,24.3176,VALID,315,VALID,0.174609,
2013-02-27, 00:53:04,VALID,1008.69,VALID,0,VALID,104,VALID,0,VALID,24.3176,VALID,315,VALID,0,
2013-02-27, 00:54:04,VALID,1008.69,VALID,0,VALID,104,VALID,0.112112,VALID,24.3761,VALID,315,VALID,0,
2013-02-27, 00:55:04,VALID,1008.65,VALID,0,VALID,104,VALID,0,VALID,24.3176,VALID,315,VALID,0,
2013-02-27, 00:56:04,VALID,1008.62,VALID,0,VALID,104,VALID,0,VALID,24.2981,VALID,315,VALID,0,
2013-02-27, 00:57:04,VALID,1008.61,VALID,0,VALID,104,VALID,0,VALID,24.3176,VALID,315,VALID,0.117969,
2013-02-27, 00:58:04,VALID,1008.59,VALID,0,VALID,104,VALID,0,VALID,24.2981,VALID,315,VALID,0.327344,
2013-02-27, 00:59:04,VALID,1008.58,VALID,0,VALID,104,VALID,0,VALID,24.2591,VALID,314,VALID,0.333594,
2013-02-27, 01:00:04,VALID,1008.57,VALID,0,VALID,104,VALID,0,VALID,24.2591,VALID,315,VALID,0.196484,
2013-02-27, 01:01:04,VALID,1008.58,VALID,0,VALID,104,VALID,0,VALID,24.2202,VALID,316,VALID,0.171094,
2013-02-27, 01:02:04,VALID,1008.58,VALID,0,VALID,104,VALID,0,VALID,24.1988,VALID,315,VALID,0,
2013-02-27, 01:03:04,VALID,1008.54,VALID,0,VALID,104,VALID,0,VALID,24.222,VALID,315,VALID,0,
2013-02-27, 01:04:04,VALID,1008.56,VALID,0,VALID,104,VALID,0,VALID,24.1617,VALID,316,VALID,0,
2013-02-27, 01:05:04,VALID,1008.53,VALID,0,VALID,104,VALID,0,VALID,24.1422,VALID,316,VALID,0.214062,
2013-02-27, 01:06:04,VALID,1008.5,VALID,0,VALID,104,VALID,0,VALID,24.1617,VALID,314,VALID,0.216797,
2013-02-27, 01:07:04,VALID,1008.5,VALID,0,VALID,104,VALID,0,VALID,24.1209,VALID,315,VALID,0.207422,
2013-02-27, 01:08:04,VALID,1008.48,VALID,0,VALID,104,VALID,0,VALID,24.1422,VALID,316,VALID,0.240625,
2013-02-27, 01:09:04,VALID,1008.46,VALID,0,VALID,104,VALID,0,VALID,24.1227,VALID,316,VALID,0.114063,
2013-02-27, 01:10:04,VALID,1008.47,VALID,0,VALID,104,VALID,0,VALID,24.1617,VALID,315,VALID,0,
2013-02-27, 01:11:04,VALID,1008.47,VALID,0,VALID,104,VALID,0,VALID,24.1617,VALID,315,VALID,0,
2013-02-27, 01:12:04,VALID,1008.48,VALID,0,VALID,104,VALID,0.112112,VALID,24.1422,VALID,316,VALID,0,
2013-02-27, 01:13:04,VALID,1008.47,VALID,0,VALID,104,VALID,0,VALID,24.1209,VALID,315,VALID,0,
2013-02-27, 01:14:04,VALID,1008.43,VALID,0,VALID,104,VALID,0,VALID,24.1014,VALID,315,VALID,0,
2013-02-27, 01:15:04,VALID,1008.44,VALID,0,VALID,104,VALID,0,VALID,24.1227,VALID,315,VALID,0,
2013-02-27, 01:16:04,VALID,1008.43,VALID,0,VALID,104,VALID,0,VALID,24.1014,VALID,315,VALID,0,
2013-02-27, 01:17:04,VALID,1008.39,VALID,0,VALID,104,VALID,0,VALID,24.1227,VALID,315,VALID,0,
2013-02-27, 01:18:04,VALID,1008.38,VALID,0,VALID,104,VALID,0.112112,VALID,24.1209,VALID,315,VALID,0,
2013-02-27, 01:19:04,VALID,1008.35,VALID,0,VALID,104,VALID,0.112112,VALID,24.1422,VALID,315,VALID,0,
2013-02-27, 01:20:04,VALID,1008.34,VALID,0,VALID,104,VALID,0,VALID,24.1422,VALID,315,VALID,0,
2013-02-27, 01:21:04,VALID,1008.31,VALID,0,VALID,104,VALID,0,VALID,24.1617,VALID,315,VALID,0,
2013-02-27, 01:22:04,VALID,1008.33,VALID,0,VALID,104,VALID,0,VALID,24.1617,VALID,315,VALID,0,
2013-02-27, 01:23:04,VALID,1008.32,VALID,0,VALID,104,VALID,0.112112,VALID,24.1404,VALID,315,VALID,0.0183594,
2013-02-27, 01:24:04,VALID,1008.31,VALID,0,VALID,104,VALID,0,VALID,24.1617,VALID,315,VALID,0.34375,
2013-02-27, 01:25:04,VALID,1008.32,VALID,0,VALID,104,VALID,0,VALID,24.1599,VALID,315,VALID,0.295312,
2013-02-27, 01:26:04,VALID,1008.32,VALID,0,VALID,104,VALID,0,VALID,24.1812,VALID,315,VALID,0.1375,
2013-02-27, 01:27:04,VALID,1008.31,VALID,0,VALID,104,VALID,0,VALID,24.1617,VALID,315,VALID,0,
2013-02-27, 01:28:04,VALID,1008.3,VALID,0,VALID,104,VALID,0.112112,VALID,24.1422,VALID,315,VALID,0,
2013-02-27, 01:29:04,VALID,1008.29,VALID,0,VALID,104,VALID,0,VALID,24.1422,VALID,315,VALID,0.374609,
2013-02-27, 01:30:04,VALID,1008.27,VALID,0,VALID,104,VALID,0,VALID,24.1422,VALID,315,VALID,0.482031,
2013-02-27, 01:31:04,VALID,1008.26,VALID,0,VALID,104,VALID,0,VALID,24.1422,VALID,315,VALID,0.513672,
2013-02-27, 01:32:04,VALID,1008.28,VALID,0,VALID,104,VALID,0,VALID,24.1209,VALID,315,VALID,0.409766,
2013-02-27, 01:33:04,VALID,1008.26,VALID,0,VALID,104,VALID,0,VALID,24.1032,VALID,315,VALID,0.166016,
2013-02-27, 01:34:04,VALID,1008.23,VALID,0,VALID,104,VALID,0,VALID,24.0819,VALID,315,VALID,0.128516,
2013-02-27, 01:35:04,VALID,1008.28,VALID,0,VALID,104,VALID,0.112112,VALID,24.0624,VALID,315,VALID,0.128125,
2013-02-27, 01:36:04,VALID,1008.29,VALID,0,VALID,104,VALID,0,VALID,24.0643,VALID,315,VALID,0.0101562,
2013-02-27, 01:37:04,VALID,1008.27,VALID,0,VALID,104,VALID,0,VALID,24.0429,VALID,315,VALID,0.254687,
2013-02-27, 01:38:04,VALID,1008.31,VALID,0,VALID,104,VALID,0,VALID,24.0643,VALID,315,VALID,0.337891,
2013-02-27, 01:39:04,VALID,1008.29,VALID,0,VALID,104,VALID,0.112112,VALID,24.0429,VALID,315,VALID,0.257813,
2013-02-27, 01:40:04,VALID,1008.31,VALID,0,VALID,104,VALID,0,VALID,24.0643,VALID,315,VALID,0.0410156,
2013-02-27, 01:41:04,VALID,1008.31,VALID,0,VALID,104,VALID,0.112112,VALID,24.0643,VALID,315,VALID,0.0671875,
2013-02-27, 01:42:04,VALID,1008.28,VALID,0,VALID,104,VALID,0.112112,VALID,24.0624,VALID,315,VALID,0,
2013-02-27, 01:43:04,VALID,1008.3,VALID,0,VALID,104,VALID,0,VALID,24.0624,VALID,315,VALID,0,
2013-02-27, 01:44:04,VALID,1008.31,VALID,0,VALID,104,VALID,0.112112,VALID,24.0624,VALID,315,VALID,0,
2013-02-27, 01:45:04,VALID,1008.26,VALID,0,VALID,104,VALID,0.112112,VALID,24.0624,VALID,315,VALID,0,
2013-02-27, 01:46:04,VALID,1008.29,VALID,0,VALID,104,VALID,0.112112,VALID,24.0624,VALID,315,VALID,0,
2013-02-27, 01:47:04,VALID,1008.29,VALID,0,VALID,104,VALID,0.112112,VALID,24.0837,VALID,315,VALID,0,
2013-02-27, 01:48:04,VALID,1008.27,VALID,0,VALID,104,VALID,0.112112,VALID,24.0643,VALID,315,VALID,0,
2013-02-27, 01:49:04,VALID,1008.27,VALID,0,VALID,104,VALID,0.112112,VALID,24.0235,VALID,315,VALID,0.276563,
2013-02-27, 01:50:04,VALID,1008.23,VALID,0,VALID,104,VALID,0,VALID,24.0253,VALID,315,VALID,0.161328,
2013-02-27, 01:51:04,VALID,1008.23,VALID,0,VALID,104,VALID,0,VALID,24.004,VALID,315,VALID,0.166797,
2013-02-27, 01:52:04,VALID,1008.22,VALID,0,VALID,104,VALID,0,VALID,24.0058,VALID,315,VALID,0.05,
2013-02-27, 01:53:04,VALID,1008.23,VALID,0,VALID,104,VALID,0.112112,VALID,23.9845,VALID,315,VALID,0,
2013-02-27, 01:54:04,VALID,1008.23,VALID,0,VALID,104,VALID,0,VALID,23.9845,VALID,315,VALID,0,
2013-02-27, 01:55:04,VALID,1008.22,VALID,0,VALID,104,VALID,0.112112,VALID,23.9863,VALID,315,VALID,0,
2013-02-27, 01:56:04,VALID,1008.24,VALID,0,VALID,104,VALID,0.112112,VALID,23.965,VALID,315,VALID,0,
2013-02-27, 01:57:04,VALID,1008.23,VALID,0,VALID,104,VALID,0.112112,VALID,23.965,VALID,315,VALID,0,
2013-02-27, 01:58:04,VALID,1008.22,VALID,0,VALID,104,VALID,0,VALID,23.965,VALID,315,VALID,0,
2013-02-27, 01:59:04,VALID,1008.19,VALID,0,VALID,104,VALID,0.112112,VALID,23.9863,VALID,315,VALID,0,
2013-02-27, 02:00:04,VALID,1008.22,VALID,0,VALID,104,VALID,0,VALID,23.9473,VALID,315,VALID,0,
2013-02-27, 02:01:05,VALID,1008.2,VALID,0,VALID,104,VALID,0.112112,VALID,23.9065,VALID,315,VALID,0,
2013-02-27, 02:02:05,VALID,1008.17,VALID,0,VALID,104,VALID,0.112112,VALID,23.9065,VALID,315,VALID,0,
2013-02-27, 02:03:05,VALID,1008.17,VALID,0,VALID,104,VALID,0.112112,VALID,23.9084,VALID,315,VALID,0,
2013-02-27, 02:04:05,VALID,1008.13,VALID,0,VALID,104,VALID,0.112112,VALID,23.8871,VALID,315,VALID,0.247266,
2013-02-27, 02:05:05,VALID,1008.14,VALID,0,VALID,104,VALID,0,VALID,23.8871,VALID,315,VALID,0.00703125,
2013-02-27, 02:06:05,VALID,1008.15,VALID,0,VALID,104,VALID,0,VALID,23.8871,VALID,315,VALID,0.0605469,
2013-02-27, 02:07:05,VALID,1008.14,VALID,0,VALID,104,VALID,0,VALID,23.8676,VALID,315,VALID,0,
2013-02-27, 02:08:05,VALID,1008.14,VALID,0,VALID,104,VALID,0.112112,VALID,23.8676,VALID,315,VALID,0.112109,
2013-02-27, 02:09:05,VALID,1008.13,VALID,0,VALID,104,VALID,0,VALID,23.8676,VALID,315,VALID,0.210547,
2013-02-27, 02:10:05,VALID,1008.1,VALID,0,VALID,104,VALID,0.112112,VALID,23.8889,VALID,315,VALID,0.440234,
2013-02-27, 02:11:05,VALID,1008.07,VALID,0,VALID,104,VALID,0.112112,VALID,23.8871,VALID,315,VALID,0.447266,
2013-02-27, 02:12:05,VALID,1008.09,VALID,0,VALID,104,VALID,0.112112,VALID,23.8871,VALID,315,VALID,0.420312,
2013-02-27, 02:13:05,VALID,1008.07,VALID,0,VALID,104,VALID,0,VALID,23.9065,VALID,354,VALID,0.31875,
2013-02-27, 02:14:05,VALID,1008.08,VALID,0,VALID,104,VALID,0,VALID,23.8871,VALID,354,VALID,0.406641,
2013-02-27, 02:15:05,VALID,1008.05,VALID,0,VALID,104,VALID,0,VALID,23.9065,VALID,354,VALID,0.386328,
2013-02-27, 02:16:05,VALID,1008.07,VALID,0,VALID,104,VALID,0.112112,VALID,23.9278,VALID,354,VALID,0.180469,
2013-02-27, 02:17:05,VALID,1008.01,VALID,0,VALID,104,VALID,0,VALID,23.9278,VALID,354,VALID,0.402344,
2013-02-27, 02:18:05,VALID,1008.01,VALID,0,VALID,104,VALID,0.112112,VALID,23.9065,VALID,354,VALID,0.239844,
2013-02-27, 02:19:05,VALID,1007.97,VALID,0,VALID,104,VALID,0,VALID,23.926,VALID,356,VALID,0.673047,
2013-02-27, 02:20:05,VALID,1007.96,VALID,0,VALID,104,VALID,0.112112,VALID,23.9473,VALID,12,VALID,0.277344,
2013-02-27, 02:21:05,VALID,1007.94,VALID,0,VALID,104,VALID,0.112112,VALID,23.9473,VALID,12,VALID,0.0945313,
2013-02-27, 02:22:05,VALID,1007.94,VALID,0,VALID,104,VALID,0,VALID,23.926,VALID,12,VALID,0.134375,
2013-02-27, 02:23:05,VALID,1007.96,VALID,0,VALID,104,VALID,0,VALID,23.926,VALID,12,VALID,0.0875,
2013-02-27, 02:24:05,VALID,1007.95,VALID,0,VALID,104,VALID,0.112112,VALID,23.926,VALID,12,VALID,0.00195313,
2013-02-27, 02:25:05,VALID,1007.95,VALID,0,VALID,104,VALID,0.112112,VALID,23.9065,VALID,12,VALID,0.207031,
2013-02-27, 02:26:05,VALID,1007.93,VALID,0,VALID,104,VALID,0.112112,VALID,23.926,VALID,12,VALID,0.231641,
2013-02-27, 02:27:05,VALID,1007.91,VALID,0,VALID,104,VALID,0.112112,VALID,23.926,VALID,12,VALID,0.0175781,
2013-02-27, 02:28:05,VALID,1007.88,VALID,0,VALID,104,VALID,0.112112,VALID,23.8871,VALID,12,VALID,0.126953,
2013-02-27, 02:29:05,VALID,1007.89,VALID,0,VALID,104,VALID,0.112112,VALID,23.9084,VALID,12,VALID,0.0992187,
2013-02-27, 02:30:05,VALID,1007.9,VALID,0,VALID,104,VALID,0.112112,VALID,23.8871,VALID,12,VALID,0.156641,
2013-02-27, 02:31:05,VALID,1007.88,VALID,0,VALID,104,VALID,0,VALID,23.8676,VALID,12,VALID,0.180078,
2013-02-27, 02:32:05,VALID,1007.88,VALID,0,VALID,104,VALID,0.112112,VALID,23.8676,VALID,12,VALID,0.0582031,
2013-02-27, 02:33:05,VALID,1007.87,VALID,0,VALID,104,VALID,0,VALID,23.8889,VALID,12,VALID,0,
2013-02-27, 02:34:05,VALID,1007.87,VALID,0,VALID,104,VALID,0,VALID,23.8481,VALID,12,VALID,0.0949219,
2013-02-27, 02:35:05,VALID,1007.8,VALID,0,VALID,104,VALID,0,VALID,23.8481,VALID,12,VALID,0.216406,
2013-02-27, 02:36:05,VALID,1007.78,VALID,0,VALID,104,VALID,0.112112,VALID,23.8091,VALID,12,VALID,0.24375,
2013-02-27, 02:37:05,VALID,1007.78,VALID,0,VALID,104,VALID,0,VALID,23.8109,VALID,12,VALID,0.0679687,
2013-02-27, 02:38:05,VALID,1007.76,VALID,0,VALID,104,VALID,0,VALID,23.7896,VALID,12,VALID,0,
2013-02-27, 02:39:05,VALID,1007.76,VALID,0,VALID,104,VALID,0,VALID,23.7914,VALID,12,VALID,0,
2013-02-27, 02:40:05,VALID,1007.74,VALID,0,VALID,104,VALID,0.112112,VALID,23.7914,VALID,12,VALID,0,
2013-02-27, 02:41:05,VALID,1007.73,VALID,0,VALID,104,VALID,0,VALID,23.7701,VALID,12,VALID,0,
2013-02-27, 02:42:05,VALID,1007.66,VALID,0,VALID,104,VALID,0.112112,VALID,23.7701,VALID,12,VALID,0,
2013-02-27, 02:43:05,VALID,1007.65,VALID,0,VALID,104,VALID,0,VALID,23.7914,VALID,12,VALID,0,
2013-02-27, 02:44:05,VALID,1007.68,VALID,0,VALID,104,VALID,0,VALID,23.7896,VALID,12,VALID,0,
2013-02-27, 02:45:05,VALID,1007.65,VALID,0,VALID,104,VALID,0,VALID,23.7507,VALID,12,VALID,0,
2013-02-27, 02:46:05,VALID,1007.68,VALID,0,VALID,104,VALID,0.112112,VALID,23.7914,VALID,12,VALID,0,
2013-02-27, 02:47:05,VALID,1007.69,VALID,0,VALID,104,VALID,0,VALID,23.772,VALID,12,VALID,0,
2013-02-27, 02:48:05,VALID,1007.7,VALID,0,VALID,104,VALID,0,VALID,23.7507,VALID,12,VALID,0,
2013-02-27, 02:49:05,VALID,1007.67,VALID,0,VALID,104,VALID,0.112112,VALID,23.7701,VALID,12,VALID,0,
2013-02-27, 02:50:05,VALID,1007.69,VALID,0,VALID,104,VALID,0,VALID,23.7507,VALID,12,VALID,0,
2013-02-27, 02:51:05,VALID,1007.67,VALID,0,VALID,104,VALID,0,VALID,23.7896,VALID,12,VALID,0,
2013-02-27, 02:52:05,VALID,1007.67,VALID,0,VALID,104,VALID,0,VALID,23.7507,VALID,12,VALID,0,
2013-02-27, 02:53:05,VALID,1007.68,VALID,0,VALID,104,VALID,0.112112,VALID,23.7507,VALID,12,VALID,0,
2013-02-27, 02:54:05,VALID,1007.7,VALID,0,VALID,104,VALID,0.112112,VALID,23.7507,VALID,12,VALID,0.186328,
2013-02-27, 02:55:05,VALID,1007.66,VALID,0,VALID,104,VALID,0,VALID,23.7525,VALID,12,VALID,0.316406,
2013-02-27, 02:56:05,VALID,1007.67,VALID,0,VALID,104,VALID,0.112112,VALID,23.7312,VALID,12,VALID,0.270312,
2013-02-27, 02:57:05,VALID,1007.65,VALID,0,VALID,104,VALID,0.112112,VALID,23.7117,VALID,12,VALID,0,
2013-02-27, 02:58:05,VALID,1007.66,VALID,0,VALID,104,VALID,0.112112,VALID,23.6922,VALID,12,VALID,0,
2013-02-27, 02:59:05,VALID,1007.64,VALID,0,VALID,104,VALID,0,VALID,23.7312,VALID,12,VALID,0,
2013-02-27, 03:00:05,VALID,1007.66,VALID,0,VALID,104,VALID,0,VALID,23.6922,VALID,12,VALID,0,
2013-02-27, 03:01:05,VALID,1007.65,VALID,0,VALID,104,VALID,0.112112,VALID,23.6922,VALID,12,VALID,0,
2013-02-27, 03:02:05,VALID,1007.61,VALID,0,VALID,104,VALID,0,VALID,23.6727,VALID,12,VALID,0,
2013-02-27, 03:03:05,VALID,1007.59,VALID,0,VALID,104,VALID,0,VALID,23.6745,VALID,12,VALID,0,
2013-02-27, 03:04:05,VALID,1007.59,VALID,0,VALID,104,VALID,0,VALID,23.6532,VALID,12,VALID,0,
2013-02-27, 03:05:05,VALID,1007.58,VALID,0,VALID,104,VALID,0,VALID,23.655,VALID,12,VALID,0.207031,
2013-02-27, 03:06:05,VALID,1007.58,VALID,0,VALID,104,VALID,0,VALID,23.655,VALID,12,VALID,0.207031,
2013-02-27, 03:07:05,VALID,1007.57,VALID,0,VALID,104,VALID,0.112112,VALID,23.6338,VALID,12,VALID,0.116406,
2013-02-27, 03:08:05,VALID,1007.53,VALID,0,VALID,104,VALID,0,VALID,23.6745,VALID,12,VALID,0,
2013-02-27, 03:09:05,VALID,1007.51,VALID,0,VALID,104,VALID,0,VALID,23.7135,VALID,12,VALID,0,
2013-02-27, 03:10:05,VALID,1007.47,VALID,0,VALID,104,VALID,0,VALID,23.6532,VALID,12,VALID,0,
2013-02-27, 03:11:05,VALID,1007.44,VALID,0,VALID,104,VALID,0,VALID,23.694,VALID,12,VALID,0,
2013-02-27, 03:12:05,VALID,1007.46,VALID,0,VALID,104,VALID,0.112112,VALID,23.6745,VALID,12,VALID,0,
2013-02-27, 03:13:05,VALID,1007.46,VALID,0,VALID,104,VALID,0,VALID,23.6727,VALID,12,VALID,0,
2013-02-27, 03:14:05,VALID,1007.44,VALID,0,VALID,104,VALID,0,VALID,23.6745,VALID,12,VALID,0,
2013-02-27, 03:15:05,VALID,1007.48,VALID,0,VALID,104,VALID,0,VALID,23.6338,VALID,12,VALID,0.165234,
2013-02-27, 03:16:05,VALID,1007.49,VALID,0,VALID,104,VALID,0,VALID,23.6727,VALID,12,VALID,0.235938,
2013-02-27, 03:17:05,VALID,1007.5,VALID,0,VALID,104,VALID,0,VALID,23.694,VALID,12,VALID,0.318359,
2013-02-27, 03:18:05,VALID,1007.5,VALID,0,VALID,104,VALID,0,VALID,23.7135,VALID,12,VALID,0.200391,
2013-02-27, 03:19:05,VALID,1007.47,VALID,0,VALID,104,VALID,0,VALID,23.7135,VALID,12,VALID,0.0703125,
2013-02-27, 03:20:05,VALID,1007.5,VALID,0,VALID,104,VALID,0,VALID,23.694,VALID,12,VALID,0,
2013-02-27, 03:21:05,VALID,1007.49,VALID,0,VALID,104,VALID,0,VALID,23.6922,VALID,12,VALID,0,
2013-02-27, 03:22:05,VALID,1007.46,VALID,0,VALID,104,VALID,0,VALID,23.7135,VALID,12,VALID,0,
2013-02-27, 03:23:05,VALID,1007.5,VALID,0,VALID,104,VALID,0,VALID,23.694,VALID,12,VALID,0,
2013-02-27, 03:24:05,VALID,1007.48,VALID,0,VALID,104,VALID,0,VALID,23.6727,VALID,12,VALID,0,
2013-02-27, 03:25:05,VALID,1007.47,VALID,0,VALID,104,VALID,0,VALID,23.6745,VALID,12,VALID,0,
2013-02-27, 03:26:05,VALID,1007.48,VALID,0,VALID,104,VALID,0,VALID,23.6338,VALID,12,VALID,0,
2013-02-27, 03:27:05,VALID,1007.5,VALID,0,VALID,104,VALID,0,VALID,23.6356,VALID,12,VALID,0,
2013-02-27, 03:28:05,VALID,1007.5,VALID,0,VALID,104,VALID,0,VALID,23.5966,VALID,12,VALID,0,
2013-02-27, 03:29:05,VALID,1007.5,VALID,0,VALID,104,VALID,0,VALID,23.5753,VALID,12,VALID,0,
2013-02-27, 03:30:05,VALID,1007.52,VALID,0,VALID,104,VALID,0,VALID,23.5576,VALID,12,VALID,0,
2013-02-27, 03:31:05,VALID,1007.51,VALID,0,VALID,104,VALID,0,VALID,23.5576,VALID,12,VALID,0,
2013-02-27, 03:32:05,VALID,1007.51,VALID,0,VALID,104,VALID,0,VALID,23.5576,VALID,12,VALID,0,
2013-02-27, 03:33:05,VALID,1007.5,VALID,0,VALID,104,VALID,0,VALID,23.5363,VALID,12,VALID,0,
2013-02-27, 03:34:05,VALID,1007.49,VALID,0,VALID,104,VALID,0.112112,VALID,23.5169,VALID,12,VALID,0,
2013-02-27, 03:35:05,VALID,1007.49,VALID,0,VALID,104,VALID,0,VALID,23.5381,VALID,12,VALID,0.0886719,
2013-02-27, 03:36:05,VALID,1007.45,VALID,0,VALID,104,VALID,0,VALID,23.5381,VALID,12,VALID,0.178516,
2013-02-27, 03:37:05,VALID,1007.45,VALID,0,VALID,104,VALID,0,VALID,23.4974,VALID,12,VALID,0.205078,
2013-02-27, 03:38:05,VALID,1007.44,VALID,0,VALID,104,VALID,0,VALID,23.4992,VALID,12,VALID,0.180078,
2013-02-27, 03:39:05,VALID,1007.43,VALID,0,VALID,104,VALID,0,VALID,23.4584,VALID,12,VALID,0.269531,
2013-02-27, 03:40:05,VALID,1007.42,VALID,0,VALID,104,VALID,0,VALID,23.4797,VALID,12,VALID,0.184375,
2013-02-27, 03:41:05,VALID,1007.39,VALID,0,VALID,104,VALID,0,VALID,23.4797,VALID,12,VALID,0.295703,
2013-02-27, 03:42:05,VALID,1007.42,VALID,0,VALID,104,VALID,0,VALID,23.4797,VALID,12,VALID,0.347656,
2013-02-27, 03:43:05,VALID,1007.43,VALID,0,VALID,104,VALID,0,VALID,23.4602,VALID,12,VALID,0.232422,
2013-02-27, 03:44:05,VALID,1007.43,VALID,0,VALID,104,VALID,0,VALID,23.4602,VALID,12,VALID,0.155859,
2013-02-27, 03:45:05,VALID,1007.46,VALID,0,VALID,104,VALID,0,VALID,23.4584,VALID,12,VALID,0.0121094,
2013-02-27, 03:46:05,VALID,1007.45,VALID,0,VALID,104,VALID,0,VALID,23.4797,VALID,12,VALID,0,
2013-02-27, 03:47:05,VALID,1007.48,VALID,0,VALID,104,VALID,0,VALID,23.4797,VALID,12,VALID,0,
2013-02-27, 03:48:05,VALID,1007.46,VALID,0,VALID,104,VALID,0,VALID,23.4584,VALID,12,VALID,0,
2013-02-27, 03:49:05,VALID,1007.49,VALID,0,VALID,104,VALID,0.112112,VALID,23.4584,VALID,12,VALID,0,
2013-02-27, 03:50:05,VALID,1007.5,VALID,0,VALID,104,VALID,0.112112,VALID,23.4584,VALID,12,VALID,0,
2013-02-27, 03:51:05,VALID,1007.49,VALID,0,VALID,104,VALID,0,VALID,23.4584,VALID,12,VALID,0,
2013-02-27, 03:52:05,VALID,1007.5,VALID,0,VALID,104,VALID,0,VALID,23.4407,VALID,12,VALID,0,
2013-02-27, 03:53:05,VALID,1007.51,VALID,0,VALID,104,VALID,0,VALID,23.4194,VALID,12,VALID,0,
2013-02-27, 03:54:05,VALID,1007.48,VALID,0,VALID,104,VALID,0,VALID,23.4212,VALID,12,VALID,0,
2013-02-27, 03:55:05,VALID,1007.53,VALID,0,VALID,104,VALID,0,VALID,23.4212,VALID,12,VALID,0,
2013-02-27, 03:56:05,VALID,1007.49,VALID,0,VALID,104,VALID,0,VALID,23.4,VALID,12,VALID,0,
2013-02-27, 03:57:05,VALID,1007.51,VALID,0,VALID,104,VALID,0,VALID,23.4212,VALID,12,VALID,0,
2013-02-27, 03:58:05,VALID,1007.5,VALID,0,VALID,104,VALID,0,VALID,23.4212,VALID,12,VALID,0,
2013-02-27, 03:59:05,VALID,1007.49,VALID,0,VALID,104,VALID,0,VALID,23.4212,VALID,12,VALID,0,